Grand Forks AFB, ND

1:55 AM CDT on May 24, 2018 (GMT -0500)
Grand Forks Air Force Base

Weather History for KRDR - October, 2012

Change the Weather History Date:

Saturday, October 6, 2012

  Actual Average Record
Temperature  
Mean Temperature 36 °F -  
Max Temperature 48 °F 59 °F 82 °F (2003)
Min Temperature 25 °F 35 °F 21 °F (2001)
Degree Days  
Heating Degree Days 29    
Moisture  
Dew Point 27 °F    
Average Humidity 71    
Maximum Humidity 93    
Minimum Humidity 41    
Precipitation  
Precipitation 0.00 in - - ()
Sea Level Pressure  
Sea Level Pressure 30.31 in    
Wind  
Wind Speed 9 mph (NW)    
Max Wind Speed 16 mph    
Max Gust Speed 23 mph    
Visibility 10 miles    
Events      
Averages and records for this station are not official NWS values.
T = Trace of Precipitation, MM = Missing Value Source: NWS Daily Summary

Daily Weather History Graph

Daily Weather History Graph

Search for Another Location

Airport or City:

Astronomy

Oct. 06, 2012 Rise Set
Actual Time 7:36 AM CDT 6:57 PM CDT
Civil Twilight 7:05 AM CDT 7:28 PM CDT
Nautical Twilight 6:29 AM CDT 8:04 PM CDT
Astronomical Twilight 5:53 AM CDT 8:40 PM CDT
Moon 10:54 PM CDT (10/6) 1:52 PM CDT (10/6)
Length of Visible Light 12h 22m
Length of Day
11h 21m
Waning Gibbous, 65% of the Moon is Illuminated
Oct 6
Waning Gibbous
Oct 8
Last Quarter
Oct 15
New
Oct 21
First Quarter
Oct 29
Full

Hourly Weather History & Observations

Time (CDT) Temp. Windchill Dew Point Humidity Pressure Visibility Wind Dir Wind Speed Gust Speed Precip Events Conditions
12:21 AM 32.0 °F 23.0 °F 30.2 °F 93% 30.33 in 10.0 mi North 11.5 mph - N/A   Mostly Cloudy
12:55 AM 32.0 °F 24.2 °F 29.5 °F 90% 30.34 in 10.0 mi North 9.2 mph - N/A   Mostly Cloudy
12:57 AM 32.0 °F 24.8 °F 30.2 °F 93% 30.33 in 10.0 mi North 8.1 mph - N/A   Mostly Cloudy
1:55 AM 33.3 °F 22.8 °F 29.1 °F 85% 30.34 in 10.0 mi North 16.1 mph 23.0 mph N/A   Overcast
2:55 AM 32.5 °F 24.2 °F 28.2 °F 84% 30.35 in 10.0 mi NNE 10.4 mph - N/A   Overcast
3:26 AM 32.0 °F 24.8 °F 28.4 °F 87% 30.35 in 10.0 mi North 8.1 mph - N/A   Scattered Clouds
3:55 AM 30.7 °F 24.1 °F 27.7 °F 88% 30.35 in 10.0 mi North 6.9 mph - N/A   Clear
4:55 AM 29.3 °F 22.3 °F 26.6 °F 90% 30.35 in 10.0 mi NNW 6.9 mph - N/A   Clear
5:55 AM 28.2 °F 21.0 °F 25.7 °F 90% 30.35 in 10.0 mi NW 6.9 mph - N/A   Clear
6:55 AM 26.4 °F 19.8 °F 23.7 °F 90% 30.36 in 10.0 mi NW 5.8 mph - N/A   Clear
7:55 AM 25.7 °F 18.0 °F 23.5 °F 92% 30.37 in 10.0 mi WNW 6.9 mph - N/A   Clear
8:55 AM 30.6 °F 23.8 °F 27.5 °F 88% 30.38 in 10.0 mi WNW 6.9 mph - N/A   Clear
9:55 AM 34.9 °F 28.3 °F 30.0 °F 82% 30.38 in 10.0 mi WNW 8.1 mph - N/A   Clear
10:55 AM 39.0 °F 32.3 °F 31.6 °F 75% 30.39 in 10.0 mi WNW 10.4 mph - N/A   Clear
11:55 AM 41.5 °F 35.9 °F 31.6 °F 68% 30.38 in 10.0 mi NW 9.2 mph - N/A   Scattered Clouds
12:09 PM 41.0 °F 34.3 °F 30.2 °F 65% 30.38 in 10.0 mi NW 11.5 mph - N/A   Mostly Cloudy
12:19 PM 42.8 °F 37.0 °F 30.2 °F 61% 30.37 in 10.0 mi WNW 10.4 mph - N/A   Scattered Clouds
12:30 PM 41.0 °F 34.7 °F 30.2 °F 65% 30.37 in 10.0 mi NW 10.4 mph - N/A   Mostly Cloudy
12:33 PM 41.0 °F 34.3 °F 30.2 °F 65% 30.37 in 10.0 mi WNW 11.5 mph - N/A   Scattered Clouds
12:55 PM 42.3 °F 36.8 °F 29.3 °F 60% 30.36 in 10.0 mi NNW 9.2 mph - N/A   Scattered Clouds
12:58 PM 42.8 °F 37.5 °F 30.2 °F 61% 30.36 in 10.0 mi NW 9.2 mph - N/A   Mostly Cloudy
1:27 PM 42.8 °F 37.5 °F 28.4 °F 57% 30.35 in 10.0 mi NNW 9.2 mph - N/A   Mostly Cloudy
1:55 PM 44.6 °F 39.7 °F 27.1 °F 50% 30.33 in 10.0 mi WNW 9.2 mph - N/A   Mostly Cloudy
2:55 PM 47.3 °F - 26.1 °F 44% 30.30 in 10.0 mi West 8.1 mph - N/A   Partly Cloudy
3:55 PM 47.3 °F - 25.2 °F 42% 30.28 in 10.0 mi WNW 6.9 mph - N/A   Partly Cloudy
4:55 PM 46.9 °F - 25.3 °F 43% 30.25 in 10.0 mi WNW 8.1 mph - N/A   Clear
5:55 PM 45.3 °F 41.1 °F 22.8 °F 41% 30.24 in 10.0 mi West 8.1 mph - N/A   Clear
6:55 PM 40.8 °F 37.8 °F 24.8 °F 53% 30.22 in 10.0 mi WNW 4.6 mph - N/A   Clear
7:55 PM 34.3 °F 31.4 °F 25.0 °F 69% 30.21 in 10.0 mi SSW 3.5 mph - N/A   Clear
8:55 PM 34.2 °F 27.5 °F 24.1 °F 67% 30.19 in 10.0 mi SSW 8.1 mph - N/A   Clear
9:55 PM 34.0 °F 27.2 °F 24.3 °F 68% 30.17 in 10.0 mi SW 8.1 mph - N/A   Clear
10:55 PM 31.1 °F 24.5 °F 23.5 °F 74% 30.16 in 10.0 mi WSW 6.9 mph - N/A   Clear
11:55 PM 31.1 °F 24.5 °F 23.9 °F 75% 30.13 in 10.0 mi WSW 6.9 mph - N/A   Clear